Starlink 34315

operational
NORAD ID: 64266 Int'l Des: 2025-120 Owner: SPXS Country: US Constellation: starlink
LEOCIRCULAR

Starlink 34315について

説明を読み込み中...

リアルタイム位置

3D地球を読み込み中...

次回通過

高度履歴

Altitude vs Time

uPlot chart will show altitude changes over time

軌道要素

1 64266U 25120L 25261.19460043 .00046654 00000-0 15762-2 0 9995
2 64266 53.1582 198.1119 0001505 86.5732 273.5441 15.30225907 17448
Epoch: Sep 18, 2025 • Age: 21 hours

現在のステータス

高度 486.6 km
速度 7.62 km/s
衛星直下点 -34.61°S, 16.28°E
打ち上げ日 Jun 4, 2025
運用期間 0.2 years
タイプ internet

技術仕様

分類 Payload
質量 575.00 kg
乾燥質量 530.00 kg
総質量 575.00 kg
長さ 0.30 m
直径 4.10 m
スパン 29.00 m
形状 Box + pan
製造者 SPXS
バスタイプ Starlink V2MO
フェーズステータス In Orbit
所有者/国 SPXS/US

大規模コンステレーション

Loading constellations...